sat.trackr.live / text

‹ back to catalog

YAM-7

NORAD 60504 · 2024-149AN

PAYLOAD ACTIVE UNKNOWN

§ Identity

Operator
Country
US
Launch date
2024-08-16
Launch site
AFWTR
Launch vehicle
Mass (kg)
RCS (m²)

External: N2YO · Heavens-Above · Gunter

§ Orbital elements

Epoch: 2026-09-22T17:50:57.238656Z

Period
93.93 min
Inclination
97.3723°
Eccentricity
0.0002133
Mean motion
15.32980163 rev/d
Perigee alt
465.5 km
Apogee alt
468.4 km
Semi-major
6,845.1 km
B*
1.6337e-4
RAAN
345.6412°
Arg perigee
330.2834°
Mean anomaly
29.8287°
Rev number
11,699

§ Raw data

YAM-71 60504U 24149AN  26265.74371804  .00005125  00000+0  16337-3 0  99952 60504  97.3723 345.6412 0002133 330.2834  29.8287 15.32980163116995

JSON: /api/v1/satellites/60504 · /tle

For live sub-satellite position, see the globe view (requires WebGL).

§ Visibility from observer

Set your observer location to see the next 7 days of passes ≥ 10°. The values pass through the URL so the page stays shareable.

No JS? Fill the form by hand. The geolocation button needs JavaScript.

§ Radio — SatNOGS DB

ModeDescriptionDownlinkUplink
FM Mode S - Transmitter 2.230 GHz
FSK Mode U - Transmitter 401.500 MHz
FM Mode X - Transmitter 8.125 GHz
FM Mode U - Backup Downlink (inactive) 401.017 MHz
FM Mode U - Backup Downlink (inactive) 401.085 MHz
FM Mode U - Backup Downlink (inactive) 401.155 MHz
FM Mode U - Backup Downlink (inactive) 401.225 MHz
FM Mode U - Backup Downlink (inactive) 401.375 MHz
FM Mode U - Backup Downlink (inactive) 401.438 MHz
FM Mode U - Backup Downlink (inactive) 401.015 MHz
FM Mode U - Downlink (inactive) 400.875 MHz

11 transmitters · refreshed weekly from db.satnogs.org